New Castle, PA

4:56 AM EDT on April 28, 2017 (GMT -0400)
New Castle Municipal

Weather History for KUCP - November, 2013

Change the Weather History Date:

Sunday, November 17, 2013

  Actual Average Record
Temperature  
Mean Temperature 56 °F -  
Max Temperature 60 °F 50 °F 75 °F (1926)
Min Temperature 51 °F 30 °F 11 °F (1933)
Degree Days  
Heating Degree Days 10    
Growing Degree Days 6 (Base 50)    
Moisture  
Dew Point 53 °F    
Average Humidity 92    
Maximum Humidity 100    
Minimum Humidity 66    
Precipitation  
Precipitation 0.33 in - - ()
Sea Level Pressure  
Sea Level Pressure 29.80 in    
Wind  
Wind Speed 9 mph (South)    
Max Wind Speed 31 mph    
Max Gust Speed 46 mph    
Visibility 7 miles    
Events Rain    
Averages and records for this station are not official NWS values.
T = Trace of Precipitation, MM = Missing Value Source: NWS Daily Summary

Daily Weather History Graph

Daily Weather History Graph

Search for Another Location

Airport or City:

Trip Planner

Search our weather history database for the weather conditions in past years. The results will help you decide how hot, cold, wet, or windy it might be!

Date:

Astronomy

Nov. 17, 2013 Rise Set
Actual Time 7:11 AM EST 5:01 PM EST
Civil Twilight 6:42 AM EST 5:30 PM EST
Nautical Twilight 6:08 AM EST 6:04 PM EST
Astronomical Twilight 5:36 AM EST 6:36 PM EST
Moon 5:16 PM EST (11/17) 7:04 AM EST (11/17)
Length of Visible Light 10h 48m
Length of Day
9h 49m
Full, 100% of the Moon is Illuminated
Nov 17
Full
Nov 25
Last Quarter
Dec 2
New
Dec 9
First Quarter
Dec 17
Full

Hourly Weather History & Observations

Time (EST) Temp. Dew Point Humidity Pressure Visibility Wind Dir Wind Speed Gust Speed Precip Events Conditions
12:56 AM 54.9 °F 45.9 °F 72% 30.04 in 10.0 mi South 6.9 mph - N/A   Clear
1:56 AM 54.9 °F 46.9 °F 75% 30.04 in 10.0 mi SSE 8.1 mph - 0.00 in Rain Light Rain
2:56 AM 52.9 °F 48.9 °F 86% 30.02 in 10.0 mi SSE 8.1 mph - 0.01 in   Overcast
3:56 AM 53.6 °F 48.2 °F 82% 29.96 in 10.0 mi SSE 6.9 mph - N/A   Mostly Cloudy
4:56 AM 52.9 °F 48.9 °F 86% 30.00 in 10.0 mi SSE 8.1 mph - 0.00 in   Mostly Cloudy
5:56 AM 52.0 °F 50.0 °F 93% 30.00 in 4.0 mi SSE 8.1 mph - 0.04 in Rain Light Rain
6:34 AM 51.8 °F 50.0 °F 94% 29.95 in 1.5 mi Variable 6.9 mph - 0.12 in Rain Heavy Rain
6:36 AM 51.8 °F 50.0 °F 94% 29.95 in 1.2 mi SE 9.2 mph - 0.16 in Rain Heavy Rain
6:47 AM 51.8 °F 51.8 °F 100% 29.96 in 2.5 mi SSE 6.9 mph - 0.20 in Rain Light Rain
6:56 AM 51.8 °F 51.8 °F 100% 29.95 in 4.0 mi Variable 5.8 mph - N/A Rain Light Rain
7:00 AM 51.8 °F 51.8 °F 100% 29.95 in 2.5 mi Variable 5.8 mph - 0.03 in Rain Heavy Rain
7:07 AM 51.8 °F 51.8 °F 100% 29.96 in 3.0 mi South 5.8 mph - 0.03 in Rain Light Rain
7:29 AM 51.8 °F 51.8 °F 100% 29.95 in 4.0 mi SSE 8.1 mph - 0.06 in Rain Light Rain
7:56 AM 52.0 °F 50.9 °F 96% 29.98 in 4.0 mi Variable 6.9 mph - 0.10 in Rain Light Rain
8:38 AM 51.8 °F 51.8 °F 100% 29.93 in 2.5 mi Variable 4.6 mph - 0.04 in Rain Rain
8:42 AM 51.8 °F 51.8 °F 100% 29.93 in 1.8 mi SE 6.9 mph - 0.05 in Rain Light Rain
8:56 AM 52.0 °F 50.9 °F 96% 29.97 in 2.5 mi SSE 8.1 mph - 0.07 in Rain Light Rain
9:03 AM 51.8 °F 51.8 °F 100% 29.92 in 3.0 mi Variable 6.9 mph - 0.00 in Rain Light Rain
9:15 AM 51.8 °F 51.8 °F 100% 29.91 in 4.0 mi Variable 6.9 mph - 0.00 in Rain Light Rain
9:32 AM 53.6 °F 51.8 °F 94% 29.91 in 10.0 mi Variable 6.9 mph - 0.00 in   Overcast
9:40 AM 53.6 °F 51.8 °F 94% 29.91 in 10.0 mi South 9.2 mph - 0.00 in   Overcast
9:56 AM 53.6 °F 51.8 °F 94% 29.89 in 10.0 mi SSE 8.1 mph - N/A   Overcast
10:56 AM 55.9 °F 52.9 °F 89% 29.94 in 10.0 mi Variable 5.8 mph - 0.01 in Rain Light Rain
11:39 AM 55.4 °F 53.6 °F 94% 29.88 in 10.0 mi South 8.1 mph - 0.01 in Rain Light Rain
11:49 AM 55.4 °F 55.4 °F 100% 29.87 in 9.0 mi Variable 6.9 mph - 0.01 in Rain Light Rain
11:56 AM 55.9 °F 54.9 °F 96% 29.91 in 8.0 mi South 8.1 mph - 0.01 in Rain Light Rain
12:56 PM 57.2 °F 55.4 °F 94% 29.84 in 10.0 mi SSW 9.2 mph 16.1 mph N/A   Mostly Cloudy
1:05 PM 57.2 °F 55.4 °F 94% 29.83 in 10.0 mi South 8.1 mph 20.7 mph N/A   Scattered Clouds
1:31 PM 57.2 °F 55.4 °F 94% 29.81 in 10.0 mi Variable 6.9 mph - N/A   Mostly Cloudy
1:56 PM 59.0 °F 54.9 °F 86% 29.83 in 10.0 mi South 10.4 mph 16.1 mph N/A   Overcast
2:56 PM 59.0 °F 55.9 °F 90% 29.78 in 10.0 mi SSE 10.4 mph 17.3 mph 0.00 in   Overcast
3:56 PM 59.0 °F 55.4 °F 88% 29.72 in 10.0 mi South 8.1 mph - N/A   Overcast
4:56 PM 59.0 °F 55.9 °F 90% 29.72 in 10.0 mi South 9.2 mph - N/A   Overcast
5:56 PM 59.0 °F 55.9 °F 90% 29.68 in 10.0 mi South 9.2 mph 19.6 mph N/A   Overcast
6:56 PM 59.0 °F 57.2 °F 94% 29.62 in 3.0 mi SSW 10.4 mph 19.6 mph N/A Rain Light Rain
7:38 PM 57.2 °F 57.2 °F 100% 29.55 in 4.0 mi SSE 8.1 mph 19.6 mph 0.01 in Rain Light Rain
7:47 PM 57.2 °F 57.2 °F 100% 29.55 in 10.0 mi SSE 10.4 mph 17.3 mph 0.01 in   Overcast
7:56 PM 57.9 °F 56.8 °F 96% 29.60 in 10.0 mi South 8.1 mph 16.1 mph 0.01 in   Mostly Cloudy
7:58 PM 57.2 °F 57.2 °F 100% 29.55 in 10.0 mi South 8.1 mph - N/A   Overcast
8:04 PM 57.2 °F 57.2 °F 100% 29.54 in 2.5 mi SSE 13.8 mph 19.6 mph 0.04 in Rain Light Rain
8:16 PM 57.2 °F 57.2 °F 100% 29.52 in 8.0 mi SSE 15.0 mph 23.0 mph 0.04 in Rain Light Rain
8:56 PM 59.0 °F 56.8 °F 93% 29.55 in 3.0 mi South 12.7 mph 24.2 mph 0.08 in Rain Rain
9:11 PM 60.8 °F 57.2 °F 88% 29.50 in 3.0 mi SSW 19.6 mph 33.4 mph 0.03 in Rain Light Rain
9:18 PM 59.0 °F 55.4 °F 88% 29.57 in 2.5 mi West 31.1 mph 46.0 mph 0.06 in Rain Rain
9:21 PM 57.2 °F 51.8 °F 82% 29.57 in 1.8 mi WSW 26.5 mph 46.0 mph 0.09 in Rain Heavy Rain
9:32 PM 51.8 °F 48.2 °F 88% 29.57 in 3.0 mi WSW 13.8 mph 29.9 mph 0.11 in Rain Light Rain
9:56 PM 51.8 °F 46.4 °F 82% 29.55 in 10.0 mi SW 6.9 mph - N/A Rain Light Rain
10:56 PM 52.9 °F 48.9 °F 86% 29.59 in 10.0 mi SW 10.4 mph - 0.00 in   Mostly Cloudy
11:56 PM 52.9 °F 41.9 °F 66% 29.64 in 10.0 mi WSW 21.9 mph 29.9 mph N/A   Clear